Find Yamal-601

NORAD ID: 44307 Int'l Des: 2019-031 Owner: GAZS Country: RU operational
HEOCIRCULARGSOGEO

Aktuelle Ansicht

3D-Globus wird geladen...

Über Yamal-601

Beschreibung wird geladen...

Nächste Überflüge

Passes for default location (London). Set your location on the main map for personalized predictions.

Höhenverlauf

Loading altitude history...

Zweizeiliger Elementsatz

1 44307U 19031A 26151.51093815 .00000133 00000-0 00000+0 0 9995
2 44307 0.0165 359.7346 0002650 71.7962 50.4167 1.00271358 25764
Epoch: 31. Mai 2026 • Age: 6 hours

Aktueller Status

Höhe 35795.3 km
Geschwindigkeit 3.07 km/s
Subsatellitenpunkt -0.03°S, 49.01°E
Startdatum 30. Mai 2019
Alter 7 years
Typ other

Technische Details

Klassifizierung Payload
Masse 3162.00 kg
Trockenmasse 2000.00 kg
Gesamtmasse 3162.00 kg
Länge 6.00 m
Durchmesser 2.00 m
Spannweite 27.00 m
Form Cyl + 2 Pan
Hersteller RESH
Bus-Typ Ekspress-2000
Phasenstatus In Orbit
Besitzer/Staat GAZS/RU

Most Searched